Ketchikan, AK

9:31 PM AKDT on April 29, 2017 (GMT -0800)
Ketchikan International

Weather History for PAKT - February, 2012

Change the Weather History Date:

Wednesday, February 22, 2012

  Actual Average Record
Temperature  
Mean Temperature 38 °F -  
Max Temperature 43 °F 43 °F 58 °F (1958)
Min Temperature 34 °F 33 °F 11 °F (1956)
Degree Days  
Heating Degree Days 26    
Moisture  
Dew Point 35 °F    
Average Humidity 91    
Maximum Humidity 100    
Minimum Humidity 67    
Precipitation  
Precipitation 0.10 in - - ()
Sea Level Pressure  
Sea Level Pressure 29.85 in    
Wind  
Wind Speed 5 mph (WNW)    
Max Wind Speed 20 mph    
Max Gust Speed 31 mph    
Visibility 10 miles    
Events Rain    
Averages and records for this station are not official NWS values.
T = Trace of Precipitation, MM = Missing Value Source: NWS Daily Summary

Daily Weather History Graph

Daily Weather History Graph

Search for Another Location

Airport or City:

Trip Planner

Search our weather history database for the weather conditions in past years. The results will help you decide how hot, cold, wet, or windy it might be!

Date:

Astronomy

Feb. 22, 2012 Rise Set
Actual Time 6:54 AM AKST 5:06 PM AKST
Civil Twilight 6:17 AM AKST 5:44 PM AKST
Nautical Twilight 5:35 AM AKST 6:26 PM AKST
Astronomical Twilight 4:52 AM AKST 7:09 PM AKST
Moon 6:38 AM AKST (2/22) 6:43 PM AKST (2/22)
Length of Visible Light 11h 26m
Length of Day
10h 11m
New Moon, 1% of the Moon is Illuminated
Feb 22
New Moon
Feb 29
First Quarter
Mar 8
Full
Mar 14
Last Quarter
Mar 22
New

Hourly Weather History & Observations

Time (AKST) Temp. Windchill Dew Point Humidity Pressure Visibility Wind Dir Wind Speed Gust Speed Precip Events Conditions
12:28 AM 37.4 °F 32.8 °F 37.4 °F 100% 29.52 in 10.0 mi SSE 5.8 mph - 0.01 in   Overcast
12:53 AM 37.0 °F 32.4 °F 37.0 °F 100% 29.53 in 10.0 mi South 5.8 mph - 0.01 in Rain Light Rain
1:27 AM 37.4 °F 29.8 °F 35.6 °F 93% 29.54 in 10.0 mi SE 11.5 mph - 0.01 in Rain Light Rain
1:43 AM 35.6 °F 29.2 °F 35.6 °F 100% 29.55 in 10.0 mi ESE 8.1 mph - 0.03 in Rain Light Rain
1:53 AM 36.0 °F 31.1 °F 36.0 °F 100% 29.55 in 10.0 mi SE 5.8 mph - 0.03 in Rain Light Rain
2:51 AM 35.6 °F 32.8 °F 35.6 °F 100% 29.57 in 10.0 mi South 3.5 mph - 0.00 in   Overcast
3:30 AM 35.6 °F - 35.6 °F 100% 29.59 in 10.0 mi Calm Calm - N/A   Overcast
3:42 AM 35.6 °F - 35.6 °F 100% 29.59 in 10.0 mi Calm Calm - N/A   Overcast
3:53 AM 36.0 °F - 36.0 °F 100% 29.60 in 10.0 mi Calm Calm - N/A   Overcast
4:23 AM 35.6 °F - 35.6 °F 100% 29.61 in 10.0 mi Calm Calm - 0.00 in Rain Light Rain
4:35 AM 37.4 °F - 35.6 °F 93% 29.62 in 10.0 mi Calm Calm - 0.01 in Rain Light Rain
4:50 AM 35.6 °F - 35.6 °F 100% 29.63 in 10.0 mi Calm Calm - 0.01 in Rain Light Rain
4:53 AM 36.0 °F - 36.0 °F 100% 29.65 in 10.0 mi Calm Calm - 0.01 in Rain Light Rain
5:08 AM 35.6 °F - 35.6 °F 100% 29.65 in 10.0 mi Calm Calm - 0.00 in Rain Light Rain
5:39 AM 35.6 °F 32.8 °F 35.6 °F 100% 29.68 in 10.0 mi WNW 3.5 mph - 0.00 in   Overcast
5:53 AM 36.0 °F 33.3 °F 36.0 °F 100% 29.70 in 10.0 mi WNW 3.5 mph - 0.00 in Rain Light Rain
6:08 AM 35.6 °F 30.7 °F 35.6 °F 100% 29.71 in 10.0 mi NNW 5.8 mph - 0.00 in Rain Light Rain
6:53 AM 37.0 °F 31.0 °F 37.0 °F 100% 29.75 in 10.0 mi WNW 8.1 mph - 0.00 in   Overcast
7:53 AM 37.9 °F 30.9 °F 37.0 °F 97% 29.80 in 10.0 mi North 10.4 mph - N/A   Overcast
8:53 AM 39.9 °F 35.1 °F 37.9 °F 93% 29.85 in 10.0 mi NW 6.9 mph 18.4 mph N/A   Overcast
9:53 AM 39.0 °F 34.8 °F 37.0 °F 93% 29.91 in 10.0 mi WNW 5.8 mph - 0.03 in   Overcast
10:53 AM 42.1 °F 37.7 °F 37.0 °F 82% 29.96 in 10.0 mi WNW 6.9 mph - N/A   Overcast
11:53 AM 43.0 °F 37.7 °F 37.0 °F 80% 29.99 in 10.0 mi NNW 9.2 mph - N/A   Overcast
12:53 PM 41.0 °F 39.0 °F 37.0 °F 86% 30.03 in 10.0 mi NW 3.5 mph - 0.02 in   Mostly Cloudy
1:53 PM 42.1 °F 37.7 °F 33.1 °F 70% 30.07 in 10.0 mi WNW 6.9 mph - N/A   Scattered Clouds
2:53 PM 41.0 °F 34.7 °F 32.0 °F 70% 30.09 in 10.0 mi NW 10.4 mph 19.6 mph N/A   Mostly Cloudy
3:02 PM 37.4 °F 27.2 °F 33.8 °F 87% 30.10 in 10.0 mi NW 19.6 mph 31.1 mph N/A   Mostly Cloudy
3:53 PM 39.0 °F 31.8 °F 32.0 °F 76% 30.13 in 10.0 mi WNW 11.5 mph 24.2 mph N/A   Mostly Cloudy
4:53 PM 37.9 °F 34.4 °F 35.1 °F 89% 30.16 in 10.0 mi WNW 4.6 mph - 0.00 in   Mostly Cloudy
5:53 PM 37.9 °F 33.5 °F 30.9 °F 76% 30.18 in 10.0 mi West 5.8 mph - N/A   Scattered Clouds
6:53 PM 39.0 °F 33.4 °F 28.9 °F 67% 30.20 in 10.0 mi WNW 8.1 mph - N/A   Overcast
7:53 PM 37.9 °F 33.5 °F 30.0 °F 73% 30.22 in 10.0 mi NW 5.8 mph - N/A   Mostly Cloudy
8:53 PM 36.0 °F - 30.9 °F 82% 30.23 in 10.0 mi Calm Calm - N/A   Overcast
9:53 PM 34.0 °F - 30.0 °F 85% 30.25 in 10.0 mi Calm Calm - N/A   Mostly Cloudy
10:53 PM 36.0 °F - 30.9 °F 82% 30.27 in 10.0 mi Calm Calm - N/A   Overcast
11:53 PM 36.0 °F - 33.1 °F 89% 30.29 in 10.0 mi Calm Calm - N/A   Mostly Cloudy